User: anonymous   Login
Location: Aranbee
(34.0885°N, 118.2342°W)
Time: 17:29:13
(UTC+00:00)
Language:

deb Explorer IX - Orbit

View from above orbital plane
View from above orbital plane
View from above satellite
View from above satellite

Ground track
Ground track

The orbit data is extracted from the following two-line orbital elements,

1 00085U 61004C   21162.78366686  .00001770  00000-0  39169-3 0  9992
2 00085  38.7726 346.1277 0385787  15.3981 345.8136 14.21755460982232
Epoch (UTC): 11 June 2021 18:48:28
Eccentricity: 0.0385787
inclination: 38.7726°
perigee height: 542 km
apogee height: 1097 km
right ascension of ascending node: 346.1277°
argument of perigee: 15.3981°
revolutions per day: 14.21755460
mean anomaly at epoch: 345.8136°
orbit number at epoch: 98223

The dashed part of the orbit path shows where the satellite is in the earth's shadow,  

DLR